timestamp,wind_dir_avg,wind_spd_avg,wind_spd_max_dir,wind_spd_gust,battery_voltage,lat,long
2021-08-05 00:04:01+00:00,257.0,5.44,262.0,6.29,12.97,47.59359,-54.27349
2021-08-05 00:14:01+00:00,244.0,4.84,248.0,5.42,12.65,47.59359,-54.27349
2021-08-05 00:24:01+00:00,256.0,5.1,260.0,5.75,12.65,47.59359,-54.27349
2021-08-05 00:34:01+00:00,265.0,6.2,264.0,6.62,12.65,47.59359,-54.27349
2021-08-05 00:44:01+00:00,268.0,5.33,266.0,5.62,12.65,47.59359,-54.27349
2021-08-05 00:54:01+00:00,199.0,2.0,203.0,2.6,12.65,47.59359,-54.27349
2021-08-05 01:04:01+00:00,181.0,2.29,189.0,3.45,12.65,47.59359,-54.27349
2021-08-05 01:14:01+00:00,192.0,1.91,209.0,2.61,12.65,47.59359,-54.27349
2021-08-05 01:24:01+00:00,71.0,1.25,60.0,2.65,12.65,47.59359,-54.27349
2021-08-05 01:34:01+00:00,190.0,4.19,194.0,5.09,12.65,47.59359,-54.27349
2021-08-05 01:44:01+00:00,206.0,3.03,202.0,6.45,12.65,47.59359,-54.27349
2021-08-05 01:54:01+00:00,251.0,4.29,263.0,6.39,12.65,47.59359,-54.27349
2021-08-05 02:04:01+00:00,248.0,3.39,237.0,5.54,12.65,47.59359,-54.27349
2021-08-05 02:14:01+00:00,258.0,2.6,254.0,3.15,12.65,47.59359,-54.27349
2021-08-05 02:24:01+00:00,295.0,4.14,302.0,5.18,12.65,47.59359,-54.27349
2021-08-05 02:34:01+00:00,295.0,5.24,295.0,6.52,12.65,47.59359,-54.27349
2021-08-05 02:44:01+00:00,290.0,4.85,287.0,5.88,12.65,47.59359,-54.27349
2021-08-05 02:54:01+00:00,264.0,3.24,265.0,3.82,12.65,47.59359,-54.27349
2021-08-05 03:04:01+00:00,269.0,4.02,270.0,4.41,12.65,47.59359,-54.27349
2021-08-05 03:14:00+00:00,293.0,3.06,294.0,3.45,12.57,47.59359,-54.27349
2021-08-05 03:24:00+00:00,267.0,3.9,269.0,4.26,12.57,47.59359,-54.27349
2021-08-05 03:34:00+00:00,285.0,4.43,287.0,5.36,12.57,47.59359,-54.27349
2021-08-05 03:44:00+00:00,287.0,3.28,292.0,3.78,12.57,47.59359,-54.27349
2021-08-05 03:54:00+00:00,277.0,3.78,275.0,4.28,12.57,47.59359,-54.27349
2021-08-05 04:04:00+00:00,291.0,2.85,290.0,3.51,12.57,47.59359,-54.27349
2021-08-05 04:14:01+00:00,275.0,4.21,280.0,4.59,12.57,47.59359,-54.27349
2021-08-05 04:24:01+00:00,275.0,3.33,274.0,3.65,12.57,47.59359,-54.27349
2021-08-05 04:34:01+00:00,274.0,3.3,280.0,3.5,12.57,47.59359,-54.27349
2021-08-05 04:44:01+00:00,255.0,2.95,254.0,3.32,12.57,47.59359,-54.27349
2021-08-05 04:54:01+00:00,248.0,2.6,248.0,2.91,12.57,47.59359,-54.27349
2021-08-05 05:04:01+00:00,253.0,3.41,253.0,3.62,12.57,47.59359,-54.27349
2021-08-05 05:14:00+00:00,248.0,3.56,250.0,3.75,12.57,47.59359,-54.27349
2021-08-05 05:24:00+00:00,263.0,3.32,264.0,3.67,12.57,47.59359,-54.27349
2021-08-05 05:34:00+00:00,267.0,3.96,269.0,4.26,12.57,47.59359,-54.27349
2021-08-05 05:44:00+00:00,269.0,3.91,269.0,4.12,12.57,47.59359,-54.27349
2021-08-05 05:54:00+00:00,261.0,4.05,260.0,4.3,12.57,47.59359,-54.27349
2021-08-05 06:04:00+00:00,258.0,3.53,257.0,3.76,12.57,47.59359,-54.27349
2021-08-05 06:14:01+00:00,269.0,3.56,267.0,3.77,12.57,47.59359,-54.27349
2021-08-05 06:24:01+00:00,257.0,4.37,257.0,4.74,12.57,47.59359,-54.27349
2021-08-05 06:34:01+00:00,249.0,4.52,248.0,4.91,12.57,47.59359,-54.27349
2021-08-05 06:44:01+00:00,245.0,4.19,248.0,4.65,12.57,47.59359,-54.27349
2021-08-05 06:54:01+00:00,234.0,3.67,235.0,4.16,12.57,47.59359,-54.27349
2021-08-05 07:04:01+00:00,239.0,3.5,242.0,3.98,12.57,47.59359,-54.27349
2021-08-05 07:14:01+00:00,237.0,3.8,236.0,4.17,12.57,47.59359,-54.27349
2021-08-05 07:24:01+00:00,231.0,3.42,227.0,4.4,12.57,47.59359,-54.27349
2021-08-05 07:34:01+00:00,230.0,3.3,232.0,3.58,12.57,47.59359,-54.27349
2021-08-05 07:44:01+00:00,232.0,2.92,233.0,3.38,12.57,47.59359,-54.27349
2021-08-05 07:54:01+00:00,227.0,4.12,223.0,4.77,12.57,47.59359,-54.27349
2021-08-05 08:04:01+00:00,230.0,3.88,230.0,4.29,12.57,47.59359,-54.27349
2021-08-05 08:14:01+00:00,225.0,3.81,225.0,4.11,12.49,47.59359,-54.27349
2021-08-05 08:24:01+00:00,224.0,4.38,225.0,4.74,12.49,47.59359,-54.27349
2021-08-05 08:34:01+00:00,228.0,5.07,228.0,5.72,12.49,47.59359,-54.27349
2021-08-05 08:44:01+00:00,230.0,4.7,232.0,5.33,12.49,47.59359,-54.27349
2021-08-05 08:54:01+00:00,240.0,2.99,240.0,3.36,12.49,47.59359,-54.27349
2021-08-05 09:04:01+00:00,241.0,3.91,240.0,4.29,12.49,47.59359,-54.27349
2021-08-05 09:14:01+00:00,244.0,3.84,245.0,4.11,12.49,47.59359,-54.27349
2021-08-05 09:24:01+00:00,243.0,4.0,245.0,4.54,12.49,47.59359,-54.27349
2021-08-05 09:34:01+00:00,241.0,4.38,237.0,4.87,12.49,47.59359,-54.27349
2021-08-05 09:44:01+00:00,252.0,3.55,250.0,3.95,12.49,47.59359,-54.27349
2021-08-05 09:54:01+00:00,257.0,3.58,262.0,4.05,12.49,47.59359,-54.27349
2021-08-05 10:04:01+00:00,268.0,2.86,270.0,3.27,12.49,47.59359,-54.27349
2021-08-05 10:14:01+00:00,268.0,2.33,266.0,2.48,13.37,47.59359,-54.27349
2021-08-05 10:24:01+00:00,267.0,2.38,273.0,2.75,13.37,47.59359,-54.27349
2021-08-05 10:34:01+00:00,254.0,2.19,258.0,2.53,13.37,47.59359,-54.27349
2021-08-05 10:44:01+00:00,237.0,2.47,230.0,2.7,13.37,47.59359,-54.27349
2021-08-05 10:54:01+00:00,231.0,1.98,231.0,2.21,13.37,47.59359,-54.27349
2021-08-05 11:04:01+00:00,218.0,1.79,215.0,2.22,13.37,47.59359,-54.27349
2021-08-05 11:14:01+00:00,213.0,2.73,214.0,3.16,13.84,47.59359,-54.27349
2021-08-05 11:24:01+00:00,208.0,2.91,209.0,3.16,13.84,47.59359,-54.27349
2021-08-05 11:34:01+00:00,208.0,2.78,210.0,3.12,13.84,47.59359,-54.27349
2021-08-05 11:44:01+00:00,209.0,3.19,211.0,3.46,13.84,47.59359,-54.27349
2021-08-05 11:54:01+00:00,185.0,3.08,184.0,3.44,13.84,47.59359,-54.27349
2021-08-05 12:04:01+00:00,181.0,3.22,179.0,3.5,13.84,47.59359,-54.27349
2021-08-05 12:14:01+00:00,184.0,3.53,185.0,3.8,13.84,47.59359,-54.27349
2021-08-05 12:24:01+00:00,183.0,3.64,188.0,4.06,13.84,47.59359,-54.27349
2021-08-05 12:34:01+00:00,180.0,3.52,183.0,4.05,13.84,47.59359,-54.27349
2021-08-05 12:44:01+00:00,196.0,5.23,197.0,5.6,13.84,47.59359,-54.27349
2021-08-05 12:54:01+00:00,194.0,5.39,194.0,5.96,13.84,47.59359,-54.27349
2021-08-05 13:04:01+00:00,196.0,6.06,199.0,6.43,13.84,47.59359,-54.27349
2021-08-05 13:14:01+00:00,202.0,6.56,198.0,7.03,14.16,47.59359,-54.27349
2021-08-05 13:24:01+00:00,206.0,5.97,212.0,6.73,14.16,47.59359,-54.27349
2021-08-05 13:34:01+00:00,204.0,6.45,200.0,7.07,14.16,47.59359,-54.27349
2021-08-05 13:44:01+00:00,203.0,6.68,201.0,7.54,14.16,47.59359,-54.27349
2021-08-05 13:54:01+00:00,211.0,7.37,215.0,8.08,14.16,47.59359,-54.27349
2021-08-05 14:04:01+00:00,207.0,7.21,207.0,7.85,14.16,47.59359,-54.27349
2021-08-05 14:14:01+00:00,207.0,6.58,206.0,7.35,14.24,47.59359,-54.27349
2021-08-05 14:24:01+00:00,210.0,7.69,210.0,8.89,14.24,47.59359,-54.27349
2021-08-05 14:34:01+00:00,202.0,7.83,209.0,8.55,14.24,47.59359,-54.27349
2021-08-05 14:44:01+00:00,202.0,7.06,204.0,7.93,14.24,47.59359,-54.27349
2021-08-05 14:54:01+00:00,203.0,7.73,203.0,8.64,14.24,47.59359,-54.27349
2021-08-05 15:04:01+00:00,206.0,8.24,208.0,8.99,14.24,47.59359,-54.27349
2021-08-05 15:14:01+00:00,198.0,7.84,200.0,8.7,14.24,47.59359,-54.27349
2021-08-05 15:24:01+00:00,203.0,8.18,204.0,9.11,14.24,47.59359,-54.27349
2021-08-05 15:34:01+00:00,206.0,8.19,213.0,8.9,14.24,47.59359,-54.27349
2021-08-05 15:44:01+00:00,211.0,8.06,214.0,9.08,14.24,47.59359,-54.27349
2021-08-05 15:54:01+00:00,213.0,7.94,215.0,8.83,14.24,47.59359,-54.27349
2021-08-05 16:04:01+00:00,211.0,7.73,213.0,8.33,14.24,47.59359,-54.27349
2021-08-05 16:14:00+00:00,207.0,7.66,213.0,8.65,14.32,47.59359,-54.27349
2021-08-05 16:24:00+00:00,214.0,9.11,214.0,10.16,14.32,47.59359,-54.27349
2021-08-05 16:34:00+00:00,209.0,7.94,212.0,8.68,14.32,47.59359,-54.27349
2021-08-05 16:44:00+00:00,206.0,8.04,210.0,8.73,14.32,47.59359,-54.27349
2021-08-05 16:54:00+00:00,208.0,8.47,210.0,9.1,14.32,47.59359,-54.27349
2021-08-05 17:04:00+00:00,204.0,8.12,202.0,9.08,14.32,47.59359,-54.27349
2021-08-05 17:14:01+00:00,203.0,7.37,206.0,8.35,14.16,47.59359,-54.27349
2021-08-05 17:24:01+00:00,209.0,8.13,212.0,9.09,14.16,47.59359,-54.27349
2021-08-05 17:34:01+00:00,204.0,8.37,206.0,9.48,14.16,47.59359,-54.27349
2021-08-05 17:44:01+00:00,209.0,8.71,211.0,10.28,14.16,47.59359,-54.27349
2021-08-05 17:54:01+00:00,212.0,9.18,212.0,10.18,14.16,47.59359,-54.27349
2021-08-05 18:04:01+00:00,210.0,8.5,211.0,9.13,14.16,47.59359,-54.27349
2021-08-05 18:14:01+00:00,214.0,8.95,213.0,9.68,14.0,47.59359,-54.27349
2021-08-05 18:24:01+00:00,212.0,7.5,217.0,8.49,14.0,47.59359,-54.27349
2021-08-05 18:34:01+00:00,214.0,5.94,219.0,7.33,14.0,47.59359,-54.27349
2021-08-05 18:44:01+00:00,217.0,6.58,221.0,7.51,14.0,47.59359,-54.27349
2021-08-05 18:54:01+00:00,215.0,7.34,216.0,8.14,14.0,47.59359,-54.27349
2021-08-05 19:04:01+00:00,217.0,7.01,219.0,8.03,14.0,47.59359,-54.27349
2021-08-05 19:14:01+00:00,215.0,7.16,216.0,7.84,13.92,47.59359,-54.27349
2021-08-05 19:24:01+00:00,213.0,8.88,214.0,9.43,13.92,47.59359,-54.27349
2021-08-05 19:34:01+00:00,215.0,8.74,215.0,9.42,13.92,47.59359,-54.27349
2021-08-05 19:44:01+00:00,213.0,9.69,209.0,10.94,13.92,47.59359,-54.27349
2021-08-05 19:54:01+00:00,217.0,8.7,217.0,9.61,13.92,47.59359,-54.27349
2021-08-05 20:04:01+00:00,213.0,9.51,211.0,10.36,13.92,47.59359,-54.27349
2021-08-05 20:14:01+00:00,211.0,9.19,208.0,10.13,13.84,47.59359,-54.27349
2021-08-05 20:24:01+00:00,212.0,8.93,212.0,10.07,13.84,47.59359,-54.27349
2021-08-05 20:34:01+00:00,210.0,9.77,207.0,10.97,13.84,47.59359,-54.27349
2021-08-05 20:44:01+00:00,209.0,9.42,206.0,10.48,13.84,47.59359,-54.27349
2021-08-05 20:54:01+00:00,209.0,9.5,211.0,10.42,13.84,47.59359,-54.27349
2021-08-05 21:04:01+00:00,203.0,8.44,204.0,9.21,13.84,47.59359,-54.27349
2021-08-05 21:14:01+00:00,203.0,8.94,204.0,10.21,13.68,47.59359,-54.27349
2021-08-05 21:24:01+00:00,200.0,8.05,205.0,9.05,13.68,47.59359,-54.27349
2021-08-05 21:34:01+00:00,200.0,7.73,199.0,8.65,13.68,47.59359,-54.27349
2021-08-05 21:44:01+00:00,202.0,8.32,206.0,9.1,13.68,47.59359,-54.27349
2021-08-05 21:54:01+00:00,205.0,6.99,206.0,7.6,13.68,47.59359,-54.27349
2021-08-05 22:04:01+00:00,206.0,8.26,209.0,9.04,13.68,47.59359,-54.27349
2021-08-05 22:14:01+00:00,204.0,7.94,203.0,9.09,13.37,47.59359,-54.27349
2021-08-05 22:24:01+00:00,205.0,8.11,208.0,8.9,13.37,47.59359,-54.27349
2021-08-05 22:34:01+00:00,205.0,7.28,204.0,8.47,13.37,47.59359,-54.27349
2021-08-05 22:44:01+00:00,198.0,7.58,200.0,8.47,13.37,47.59359,-54.27349
2021-08-05 22:54:01+00:00,196.0,5.95,196.0,6.34,13.37,47.59359,-54.27349
2021-08-05 23:04:01+00:00,199.0,6.43,201.0,6.87,13.37,47.59359,-54.27349
2021-08-05 23:14:01+00:00,199.0,6.56,200.0,7.09,12.89,47.59359,-54.27349
2021-08-05 23:24:01+00:00,196.0,6.56,200.0,6.86,12.89,47.59359,-54.27349
2021-08-05 23:34:01+00:00,195.0,6.53,200.0,7.08,12.89,47.59359,-54.27349
2021-08-05 23:44:01+00:00,209.0,6.77,212.0,7.89,12.89,47.59359,-54.27349
2021-08-05 23:54:01+00:00,205.0,7.83,208.0,8.72,12.89,47.59359,-54.27349
